2020-051C (45941 NORAD) Tracking and Keplerian Element Data

This shows tracking and keplerian element data for the satellite.

Feedback or suggestion? Click here.




ElementValue
Catalog45941
Name2020-051C
Epoch Orbit1964
Epoch Day336.11602334
Epoch Year2020
RAAN49.9248
Inclination97.4875
Eccentricity0.0012412
Argument of Perigee176.2336
Mean Anonmoly246.8523
Mean Motion15.25270167
Decay Rate2.561E-05
L11 45941U 20051C 20336.11602334 .00002561 00000-0 10458-3 0 9990
L22 45941 97.4875 49.9248 0012412 176.2336 246.8523 15.25270167 19645

Live tracking and technical data element details for 2020-051C (NORAD 45941). 2020-051C can be tracked NOW for your location showing map with azimuth and elevation plus other details from your city location.

Track the satellite on the map from your city or location and see movement details for azimuth, elevation, latitude, longitude, range, height, and movement on the map or in text.







IsCatalogInMostPopularTable: catalog: 45941, numindb: 24
Update: records affected: 1



GetName: 45941 2020-051C

Hit Count: updated at: Tue, 01 Dec 2020 20:52:13 GMT